Track JAS 2 (FO-29) now! 10-day predictions JAS 2 (FO-29) is classified as:
1 24278U 96046B 25199.41993905 -.00000028 00000-0 10063-4 0 9999 2 24278 98.5707 88.1957 0348993 241.8952 114.6505 13.53250596428023